Zurück zum Katalog

COSMOS 923

AktivMilitärLEO
NORAD 10120·PAYLOAD·🇷🇺 Russia

Gestartet Jul 1, 1977 von Plesetsk Cosmodrome

Loading…

Nächste Überflüge (nächste 24 Stunden)

TLE

AktuellSource: Space-Track

Epoche: Sep 14, 2026, 06:39 UTC

1 10120U 77059A   26257.27760859  .00000072  00000-0  35684-4 0  9997
2 10120  74.0473 220.6488 0011669 121.7349 238.4942 14.32918952568624

Verfolge COSMOS 923 in Echtzeit mit AllMySat

Download on the App Store